VIVA127 OMAA-OMDB

Flight info

Callsign VIVA127
Flight time N/A
Altitude 9000
Route LORID
Aircraft A20N/M-SDE2E3FGHIRWXY/LB1

Departure

Time 2026-04-28 19:47
Airport Zayed International Airport (OMAA)

Arrival

Time N/A
Airport Dubai International Airport (OMDB)
Time Latitude Longitude Altitude Speed Heading
2026-04-28 19:24 24.42914 54.64657 56 ft 0 kts 154°
2026-04-28 19:34 24.42916 54.64655 56 ft 2 kts 159°
2026-04-28 19:34 24.42932 54.64655 61 ft 2 kts 226°
2026-04-28 19:35 24.42937 54.64661 60 ft 0 kts 257°
2026-04-28 19:40 24.42947 54.64635 60 ft 8 kts 336°
2026-04-28 19:40 24.42950 54.64633 60 ft 0 kts 336°
2026-04-28 19:40 24.43005 54.64625 60 ft 7 kts
2026-04-28 19:41 24.43111 54.64693 63 ft 21 kts 31°
2026-04-28 19:41 24.43193 54.64747 56 ft 9 kts 52°
2026-04-28 19:41 24.43210 54.64825 63 ft 14 kts 100°
2026-04-28 19:41 24.43166 54.64911 57 ft 13 kts 126°
2026-04-28 19:42 24.43115 54.64988 63 ft 12 kts 126°
2026-04-28 19:42 24.43063 54.65062 58 ft 12 kts 127°
2026-04-28 19:42 24.43012 54.65135 59 ft 12 kts 127°
2026-04-28 19:42 24.42963 54.65201 55 ft 22 kts 129°
2026-04-28 19:43 24.42828 54.65391 58 ft 24 kts 129°
2026-04-28 19:43 24.42717 54.65542 58 ft 30 kts 128°
2026-04-28 19:43 24.42583 54.65733 60 ft 32 kts 127°
2026-04-28 19:43 24.42451 54.65924 56 ft 32 kts 128°
2026-04-28 19:44 24.42316 54.66114 59 ft 31 kts 128°
2026-04-28 19:44 24.42183 54.66296 56 ft 21 kts 129°
2026-04-28 19:44 24.42095 54.66422 54 ft 21 kts 126°
2026-04-28 19:44 24.42077 54.66450 55 ft 0 kts 126°
2026-04-28 19:45 24.42064 54.66470 58 ft 18 kts 126°
2026-04-28 19:45 24.42065 54.66603 55 ft 18 kts 52°
2026-04-28 19:45 24.42171 54.66661 56 ft 16 kts 360°
2026-04-28 19:45 24.42240 54.66606 53 ft 0 kts 308°
2026-04-28 19:46 24.42300 54.66524 53 ft 47 kts 308°
2026-04-28 19:46 24.42682 54.65999 57 ft 130 kts 308°
2026-04-28 19:46 24.43365 54.65053 305 ft 179 kts 312°
2026-04-28 19:47 24.44186 54.63873 765 ft 209 kts 309°
2026-04-28 19:47 24.45083 54.62438 1236 ft 244 kts 307°
2026-04-28 19:47 24.46017 54.60786 1878 ft 270 kts 305°
2026-04-28 19:47 24.46980 54.58887 2590 ft 285 kts 301°
2026-04-28 19:48 24.47841 54.56932 3274 ft 289 kts 297°
2026-04-28 19:48 24.48604 54.54851 3967 ft 293 kts 292°
2026-04-28 19:48 24.49198 54.52784 4624 ft 283 kts 287°
2026-04-28 19:48 24.49618 54.50656 5278 ft 287 kts 282°
2026-04-28 19:49 24.49844 54.48444 5962 ft 294 kts 275°
2026-04-28 19:49 24.49839 54.46197 6621 ft 299 kts 268°
2026-04-28 19:49 24.49569 54.43910 7306 ft 305 kts 259°
2026-04-28 19:49 24.49034 54.41639 8023 ft 303 kts 257°
2026-04-28 19:50 24.49630 54.37459 8754 ft 282 kts 303°
2026-04-28 19:50 24.51079 54.36015 8789 ft 286 kts 329°
2026-04-28 19:50 24.53005 54.35406 8788 ft 293 kts 355°
2026-04-28 19:51 24.55039 54.35686 8791 ft 297 kts 13°
2026-04-28 19:51 24.56997 54.36453 8786 ft 300 kts 24°
2026-04-28 19:51 24.58816 54.37594 8799 ft 302 kts 31°
2026-04-28 19:51 24.60574 54.38877 8797 ft 303 kts 33°
2026-04-28 19:52 24.62280 54.40193 8790 ft 303 kts 34°
2026-04-28 19:52 24.63990 54.41542 8790 ft 303 kts 34°
2026-04-28 19:52 24.65702 54.42909 8791 ft 303 kts 34°
2026-04-28 19:52 24.67400 54.44273 8790 ft 303 kts 34°
2026-04-28 19:53 24.69101 54.45643 8789 ft 303 kts 34°
2026-04-28 19:53 24.70783 54.47001 8796 ft 303 kts 34°
2026-04-28 19:53 24.72485 54.48376 8796 ft 303 kts 34°
2026-04-28 19:53 24.74185 54.49751 8795 ft 302 kts 34°
2026-04-28 19:54 24.75883 54.51125 8797 ft 302 kts 34°
2026-04-28 19:54 24.77559 54.52481 8796 ft 302 kts 34°
2026-04-28 19:54 24.79250 54.53851 8795 ft 302 kts 34°
2026-04-28 19:54 24.80949 54.55227 8797 ft 303 kts 34°
2026-04-28 19:55 24.82648 54.56605 8794 ft 303 kts 34°
2026-04-28 19:55 24.84324 54.57964 8795 ft 303 kts 34°
2026-04-28 19:55 24.86021 54.59340 8797 ft 303 kts 34°
2026-04-28 19:55 24.87724 54.60721 8796 ft 303 kts 34°
2026-04-28 19:56 24.89425 54.62103 8797 ft 303 kts 34°
2026-04-28 19:56 24.91127 54.63485 8795 ft 303 kts 34°
2026-04-28 19:56 24.92828 54.64861 8797 ft 303 kts 33°
2026-04-28 19:56 24.94523 54.66200 8798 ft 303 kts 33°
2026-04-28 19:57 24.96249 54.67550 8801 ft 303 kts 33°
2026-04-28 19:57 24.97970 54.68895 8802 ft 303 kts 33°
2026-04-28 19:57 24.99692 54.70241 8801 ft 303 kts 33°
2026-04-28 19:57 25.01416 54.71589 8801 ft 303 kts 33°
2026-04-28 19:58 25.03122 54.72924 8729 ft 302 kts 33°
2026-04-28 19:58 25.04836 54.74266 8425 ft 298 kts 33°
2026-04-28 19:58 25.06475 54.75551 8268 ft 287 kts 32°
2026-04-28 19:58 25.08069 54.76802 8108 ft 274 kts 32°
2026-04-28 19:59 25.09585 54.77993 7923 ft 261 kts 32°
2026-04-28 19:59 25.11038 54.79133 7734 ft 252 kts 31°
2026-04-28 19:59 25.12469 54.80254 7785 ft 253 kts 31°
2026-04-28 19:59 25.13906 54.81378 7798 ft 253 kts 32°
2026-04-28 20:00 25.15329 54.82528 7800 ft 254 kts 34°
2026-04-28 20:00 25.16704 54.83758 7802 ft 255 kts 36°
2026-04-28 20:00 25.18062 54.85012 7800 ft 255 kts 36°
2026-04-28 20:00 25.19404 54.86260 7802 ft 255 kts 36°
2026-04-28 20:01 25.20659 54.87661 7798 ft 258 kts 52°
2026-04-28 20:01 25.21421 54.89447 7792 ft 261 kts 78°
2026-04-28 20:01 25.21513 54.91457 7803 ft 263 kts 92°